Regional Weather Roundup
Issued by NWS

Home | Current Version | Previous Version | Text Only | Print | Product List | Glossary Off
Versions: 1 2 3 4 5 6 7 8 9 10 11 12 13 14 15 16 17 18 19 20 21 22 23 24 25 26 27 28 29 30 31 32 33 34 35 36 37 38 39 40 41 42 43 44 45 46 47 48 49 50

000
ASUS43 KFSD 282210
RWRSD

WEATHER ROUNDUP FOR SOUTH DAKOTA
NATIONAL WEATHER SERVICE SIOUX FALLS SD
500 PM CDT FRI JUL 28 2017

NOTE: "FAIR" INDICATES FEW OR NO CLOUDS BELOW 12,000 FEET WITH NO
SIGNIFICANT WEATHER AND/OR OBSTRUCTIONS TO VISIBILITY.


SDZ001>005-009-010-012>017-282300-
NORTHWEST AND NORTH CENTRAL SOUTH DAKOTA

CITY           SKY/WX    TMP DP  RH WIND       PRES   REMARKS
BUFFALO          N/A     91  55  29 CALM      29.92F
FAITH            N/A     87  59  38 E7        29.97S
MOBRIDGE       MOSUNNY   87  62  43 SE15      29.97F
$$

SDZ012>016-024>037-041>051-057-063-072>074-282300-
SOUTHWEST AND SOUTH CENTRAL SOUTH DAKOTA

CITY           SKY/WX    TMP DP  RH WIND       PRES   REMARKS
RAPID CTY ARPT PTSUNNY   88  60  38 SW5       30.01S
PIERRE         MOSUNNY   87  57  35 SE21G30   29.96F
CUSTER         CLOUDY    74  54  49 E7G16     30.18S
PHILIP         MOSUNNY   93  60  33 W12       29.93F
PINE RIDGE     MOSUNNY   85  65  51 VRB6      30.04S
SPEARFISH      FAIR      86  57  37 NE6       30.06S
WINNER         FAIR      87  59  38 SE13G20   30.01F
$$

SDZ004>011-016>023-039-040-282300-
NORTHEAST SOUTH DAKOTA

CITY           SKY/WX    TMP DP  RH WIND       PRES   REMARKS
ABERDEEN       MOSUNNY   84  61  45 S12       30.04F
WATERTOWN      MOSUNNY   80  62  54 S10       30.07F
BROOKINGS      MOSUNNY   80  62  54 S9        30.09S
SISSETON         N/A     85  57  38 SE12      30.04F
$$

SDZ017-020-022-023-036>040-048>070-282300-
SOUTHEAST SOUTH DAKOTA

CITY           SKY/WX    TMP DP  RH WIND       PRES   REMARKS
SIOUX FALLS    CLOUDY    81  63  54 E9        30.07S
HURON          SUNNY     81  61  50 SE13      30.04F
CHAMBERLAIN    CLOUDY    85  62  46 S8        30.02S
MITCHELL       MOSUNNY   82  64  54 E12       30.05S
YANKTON        SUNNY     80  61  52 SE8       30.05F
$$

ABBREVIATIONS USED IN REMARKS
   TC - TEMPERATURE IN CELSIUS
  WCI - WIND CHILL INDEX
   HX - HEAT INDEX
  VSB - VISIBILITY





USA.gov is the U.S. government's official web portal to all federal, state and local government web resources and services.